Location: Brede
(50.9167°N, 0.6000°E)
Time: 00:02:21
(UTC+00:00)

NOSS 0 Rocket - Pass Details

Date: 08 August 2020
Orbit: 934 x 956 km, 70.0° (Epoch: 19 September)

Event Time Altitude Azimuth Distance (km) Brightness Sun altitude
Rises 00:03:53 0° 328° (NNW) 3,635 7.9 -23.0°
Reaches altitude 10° 00:06:27 10° 331° (NNW) 2,689 7.1 -23.0°
Maximum altitude 00:12:41 68° 55° (NE) 1,029 4.2 -23.0°
Enters shadow 00:15:55 30° 130° (SE) 1,653 4.9 -23.0°
